(134602) = 1999 TX151

Discovered at Socorro on 1999-10-07 by LINEAR.

Orbit

Orbit type: Main Belt

Note: WebGL enabled browser required.

epoch2024-03-31.0
epoch JD2460400.5
perihelion date2021-05-21.57986
perihelion JD2459356.07986
argument of perihelion (°)328.13981
ascending node (°)45.65468
inclination (°)6.91452
eccentricity0.1360806
perihelion distance (AU)2.0346846
Tisserand w.r.t. Jupiter3.5
ΔV w.r.t. Earth (km/sec)9.1
semimajor axis (AU)2.3551787
mean anomaly (°)284.80232
mean daily motion (°/day)0.27268940
aphelion distance (AU)2.676
period (years)3.61
P-vector [x]0.96841170
P-vector [y]0.24650402
P-vector [z]0.03761037
Q-vector [x]-0.23402242
Q-vector [y]0.84638483
Q-vector [z]0.47839965
absolute magnitude16.11
phase slope0.15
uncertainty0
referenceE2024-G04
observations used821
oppositions15
arc length (days)8650
first opposition used1999
last opposition used2023
residual rms (arc-secs)0.67
perturbers coarse indicatorM-v
perturbers precise indicator003Ek
first observation date used1999-10-04.0
last observation date used2023-06-10.0
computer nameMPCLINUX
JD of orbit computation2456465.506525
perihelion JD uncertainty (days)7.4226E-05
argument of perihelion uncertainty (°)4.2569E-05
ascending node uncertainty (°)3.8186E-05
inclination uncertainty (°)6.4257E-06
eccentricity uncertainty 6.5661E-08
perihelion distance uncertainty (AU)1.5287E-07
Minimum Orbit Intersection Distances (in AU)
for orbit epoch: 2460400.5, reference: E2024-G04
Mercury1.68061
Venus1.30913
Earth1.03979
Mars0.60773
Jupiter2.78074
Saturn6.70178
Uranus15.8055
Neptune27.7503

Observations

831 total observations over interval: 1999 10 04.31147 – 2023 06 10.241632
These data are available for download (format description).

Date (UT) J2000 RA J2000 Dec Magn Location Ref
1999 10 04.31147 02 06 35.20 +07 03 20.0 18.1 R 703 – Catalina Sky Survey MPS 15350
1999 10 04.32357 02 06 34.61 +07 03 19.5 18.6 R 703 – Catalina Sky Survey MPS 15350
1999 10 04.33567 02 06 33.98 +07 03 18.7 18.5 R 703 – Catalina Sky Survey MPS 15350
1999 10 04.34777 02 06 33.31 +07 03 17.7 19.5 R 703 – Catalina Sky Survey MPS 15350
1999 10 07.36400 02 03 59.77 +07 00 57.4 18.4   704 – Lincoln Laboratory ETS, New Mexico MPS 13843
1999 10 07.38539 02 03 58.57 +07 00 55.9 18.9   704 – Lincoln Laboratory ETS, New Mexico MPS 13843
1999 10 07.39609 02 03 57.98 +07 00 55.2 19.0   704 – Lincoln Laboratory ETS, New Mexico MPS 13843
1999 10 07.40683 02 03 57.39 +07 00 55.9 18.9   704 – Lincoln Laboratory ETS, New Mexico MPS 13843
1999 10 09.29061 02 02 15.36 +06 59 18.1 18.5   704 – Lincoln Laboratory ETS, New Mexico MPS 13843
1999 10 09.30375 02 02 14.57 +06 59 17.2 18.6   704 – Lincoln Laboratory ETS, New Mexico MPS 13843
1999 10 09.31678 02 02 13.82 +06 59 16.1 18.2   704 – Lincoln Laboratory ETS, New Mexico MPS 13843
1999 10 09.33021 02 02 13.06 +06 59 15.7 18.4   704 – Lincoln Laboratory ETS, New Mexico MPS 13843
1999 10 09.34358 02 02 12.25 +06 59 15.4 18.2   704 – Lincoln Laboratory ETS, New Mexico MPS 13843
1999 10 15.26246 01 56 25.39 +06 53 53.2 17.8   704 – Lincoln Laboratory ETS, New Mexico MPS 13843
1999 10 15.27963 01 56 24.26 +06 53 52.2 18.3   704 – Lincoln Laboratory ETS, New Mexico MPS 13843
1999 10 15.29596 01 56 23.20 +06 53 51.5 17.6   704 – Lincoln Laboratory ETS, New Mexico MPS 13843
1999 10 15.31289 01 56 22.13 +06 53 50.9 18.3   704 – Lincoln Laboratory ETS, New Mexico MPS 13843
1999 10 15.32879 01 56 21.15 +06 53 50.0 18.4   704 – Lincoln Laboratory ETS, New Mexico MPS 13843
1999 10 19.19774 01 52 21.00 +06 50 31.6 17.9   704 – Lincoln Laboratory ETS, New Mexico MPS 13843
1999 10 19.21149 01 52 20.11 +06 50 31.5 17.2   704 – Lincoln Laboratory ETS, New Mexico MPS 13843
1999 10 19.22523 01 52 19.20 +06 50 30.6 17.3   704 – Lincoln Laboratory ETS, New Mexico MPS 13843
1999 10 19.23904 01 52 18.26 +06 50 30.5 17.4   704 – Lincoln Laboratory ETS, New Mexico MPS 13843
1999 10 19.25283 01 52 17.36 +06 50 29.4 17.3   704 – Lincoln Laboratory ETS, New Mexico MPS 13843
1999 11 05.24707 01 35 11.08 +06 47 00.0 18.1   704 – Lincoln Laboratory ETS, New Mexico MPS 15350
1999 11 05.26336 01 35 10.21 +06 47 00.3 18.4   704 – Lincoln Laboratory ETS, New Mexico MPS 15350
1999 11 05.27958 01 35 09.30 +06 47 01.0 18.7   704 – Lincoln Laboratory ETS, New Mexico MPS 15350
1999 11 05.29579 01 35 08.39 +06 47 00.5 18.6   704 – Lincoln Laboratory ETS, New Mexico MPS 15350
1999 11 12.21450 01 29 35.13 +06 54 24.5 18.7   704 – Lincoln Laboratory ETS, New Mexico MPS 13843
1999 11 12.23041 01 29 34.35 +06 54 25.6 19.1   704 – Lincoln Laboratory ETS, New Mexico MPS 13843
1999 11 12.25998 01 29 33.06 +06 54 28.3 19.2   704 – Lincoln Laboratory ETS, New Mexico MPS 13843
1999 11 12.27442 01 29 32.42 +06 54 29.0 19.4   704 – Lincoln Laboratory ETS, New Mexico MPS 13843
1999 11 17.13066 01 26 28.31 +07 03 45.3 18.3   704 – Lincoln Laboratory ETS, New Mexico MPS 13843
1999 11 17.14630 01 26 27.76 +07 03 46.8 18.1   704 – Lincoln Laboratory ETS, New Mexico MPS 13843
1999 11 17.16205 01 26 27.17 +07 03 48.3 18.5   704 – Lincoln Laboratory ETS, New Mexico MPS 13843
1999 11 17.17772 01 26 26.61 +07 03 50.6 18.7   704 – Lincoln Laboratory ETS, New Mexico MPS 13843
1999 11 17.19345 01 26 26.08 +07 03 53.0 18.5   704 – Lincoln Laboratory ETS, New Mexico MPS 13843
2003 10 25.38766 06 56 18.28 +27 34 09.8 19.5   704 – Lincoln Laboratory ETS, New Mexico MPS 92587
2003 10 25.39939 06 56 18.72 +27 34 11.9 19.6   704 – Lincoln Laboratory ETS, New Mexico MPS 92587
2003 10 25.41164 06 56 19.19 +27 34 14.1 19.5   704 – Lincoln Laboratory ETS, New Mexico MPS 92587
2003 11 20.39466 07 02 53.39 +29 31 34.2 19.1   704 – Lincoln Laboratory ETS, New Mexico MPS 92587
2003 11 20.40744 07 02 53.07 +29 31 39.1 19.4   704 – Lincoln Laboratory ETS, New Mexico MPS 92587
2003 11 20.42046 07 02 52.82 +29 31 43.0 19.4   704 – Lincoln Laboratory ETS, New Mexico MPS 92587
2003 11 20.43308 07 02 52.61 +29 31 47.8 19.7   704 – Lincoln Laboratory ETS, New Mexico MPS 92587
2003 11 20.44648 07 02 52.40 +29 31 51.9 20.1   704 – Lincoln Laboratory ETS, New Mexico MPS 92587
2003 11 24.31924 07 01 37.89 +29 53 06.2 19.2   704 – Lincoln Laboratory ETS, New Mexico MPS 92587
2003 11 24.33198 07 01 37.59 +29 53 10.9 19.4   704 – Lincoln Laboratory ETS, New Mexico MPS 92587
2003 11 24.34451 07 01 37.20 +29 53 14.4 19.5   704 – Lincoln Laboratory ETS, New Mexico MPS 92587
2003 11 24.35703 07 01 36.91 +29 53 19.0 19.7   704 – Lincoln Laboratory ETS, New Mexico MPS 92587
2003 11 24.36943 07 01 36.57 +29 53 22.5 19.7   704 – Lincoln Laboratory ETS, New Mexico MPS 92587
2003 12 04.34568 06 55 40.07 +30 49 35.4 19.5   704 – Lincoln Laboratory ETS, New Mexico MPS 92587
2003 12 04.35774 06 55 39.37 +30 49 40.0 19.2   704 – Lincoln Laboratory ETS, New Mexico MPS 92587
2003 12 04.36976 06 55 38.87 +30 49 43.2 19.8   704 – Lincoln Laboratory ETS, New Mexico MPS 92587
2003 12 04.38195 06 55 38.27 +30 49 47.3 19.2   704 – Lincoln Laboratory ETS, New Mexico MPS 92587
2003 12 17.30389 06 42 57.09 +31 56 49.6 19.2   644 – Palomar Mountain/NEAT MPS 93578
2003 12 17.32891 06 42 55.20 +31 56 57.3 19.1   704 – Lincoln Laboratory ETS, New Mexico MPS 93578
2003 12 17.34227 06 42 54.24 +31 57 01.2 19.3   704 – Lincoln Laboratory ETS, New Mexico MPS 93578
2003 12 17.35596 06 42 53.24 +31 57 05.4 19.3   704 – Lincoln Laboratory ETS, New Mexico MPS 93578
2003 12 17.36863 06 42 52.32 +31 57 08.3 19.3   704 – Lincoln Laboratory ETS, New Mexico MPS 93578
2003 12 17.37766 06 42 51.78 +31 57 09.8 18.9   644 – Palomar Mountain/NEAT MPS 93578
2003 12 17.38189 06 42 51.35 +31 57 11.9 19.2   704 – Lincoln Laboratory ETS, New Mexico MPS 93578
2003 12 17.44178 06 42 47.22 +31 57 27.8 19.2   644 – Palomar Mountain/NEAT MPS 93578
2003 12 18.33693 06 41 45.04 +32 01 29.3 18.9   704 – Lincoln Laboratory ETS, New Mexico MPS 93578
2003 12 18.35171 06 41 43.99 +32 01 33.4 19.2   704 – Lincoln Laboratory ETS, New Mexico MPS 93578
2003 12 18.36462 06 41 43.05 +32 01 36.2 19.3   704 – Lincoln Laboratory ETS, New Mexico MPS 93578
2003 12 18.38027 06 41 41.93 +32 01 40.9 19.1   704 – Lincoln Laboratory ETS, New Mexico MPS 93578
2003 12 18.39314 06 41 40.91 +32 01 43.9 19.1   704 – Lincoln Laboratory ETS, New Mexico MPS 93578
2003 12 19.32747 06 40 35.16 +32 05 49.3 18.7   704 – Lincoln Laboratory ETS, New Mexico MPS 94449
2003 12 19.34061 06 40 34.16 +32 05 52.9 18.7   704 – Lincoln Laboratory ETS, New Mexico MPS 94449
2003 12 19.35387 06 40 33.17 +32 05 56.3 19.0   704 – Lincoln Laboratory ETS, New Mexico MPS 94449
2003 12 19.36720 06 40 32.21 +32 05 59.1 19.2   704 – Lincoln Laboratory ETS, New Mexico MPS 94449
2003 12 19.38041 06 40 31.25 +32 06 03.2 18.9   704 – Lincoln Laboratory ETS, New Mexico MPS 94449
2003 12 21.33241 06 38 10.71 +32 14 10.0 18.9   704 – Lincoln Laboratory ETS, New Mexico MPS 94449
2003 12 21.34546 06 38 09.66 +32 14 13.7 19.0   704 – Lincoln Laboratory ETS, New Mexico MPS 94449
2003 12 21.35857 06 38 08.72 +32 14 16.6 18.8   704 – Lincoln Laboratory ETS, New Mexico MPS 94449
2003 12 21.37169 06 38 07.69 +32 14 20.3 19.3   704 – Lincoln Laboratory ETS, New Mexico MPS 94449
2003 12 21.38552 06 38 06.64 +32 14 23.7 19.2   704 – Lincoln Laboratory ETS, New Mexico MPS 94449
2003 12 23.27245 06 35 48.19 +32 21 41.1 18.5   704 – Lincoln Laboratory ETS, New Mexico MPS 94449
2003 12 23.28530 06 35 47.31 +32 21 44.4 18.9   704 – Lincoln Laboratory ETS, New Mexico MPS 94449
2003 12 23.29825 06 35 46.24 +32 21 48.0 18.9   704 – Lincoln Laboratory ETS, New Mexico MPS 94449
2003 12 23.31148 06 35 45.19 +32 21 50.0 18.9   704 – Lincoln Laboratory ETS, New Mexico MPS 94449
2003 12 23.32454 06 35 44.23 +32 21 53.2 19.3   704 – Lincoln Laboratory ETS, New Mexico MPS 94449
2003 12 24.26179 06 34 34.56 +32 25 16.9 19.1   704 – Lincoln Laboratory ETS, New Mexico MPS 94449
2003 12 24.27501 06 34 33.61 +32 25 19.9 18.9   704 – Lincoln Laboratory ETS, New Mexico MPS 94449
2003 12 24.28814 06 34 32.65 +32 25 23.9 19.5   704 – Lincoln Laboratory ETS, New Mexico MPS 94449
